NOAA NWS Hourly Roundups by Site

Regional Weather Roundup for State College, PA

To Select Another Site Choose from List

Select Site:  

000
ASUS41 KCTP 071210
RWRCTP

REGIONAL WEATHER ROUNDUP
NATIONAL WEATHER SERVICE STATE COLLEGE PA
800 AM EDT FRI AUG 07 2020

Note: "fair" indicates few or no clouds below 12,000 feet with no
significant weather and/or obstructions to visibility.

* = STATION THAT DOES NOT REPORT PRECIPITATION /E.G. RAIN...SNOW...ETC/
    THUNDER OR FOG.

PAZ002>004-007>009-013>016-020>023-029>032-071300-
WESTERN PENNSYLVANIA

CITY           SKY/WX    TMP DP  RH WIND       PRES   REMARKS
ERIE           SUNNY     65  56  72 CALM      30.14R
MEADVILLE      MOSUNNY   61  54  77 NE6       30.15R
FRANKLIN       MOSUNNY   60  56  86 NE5       30.16R
NEW CASTLE     CLOUDY    61  58  90 CALM      30.15R
BEAVER COUNTY  CLOUDY    65  58  77 CALM      30.14R
BUTLER         SUNNY     63  59  87 NE5       30.14R
PITTSBURGH INT MOSUNNY   66  59  78 N6        30.12R
PITTSBURGH     MOSUNNY   66  60  81 N3        30.11R
INDIANA*       SUNNY     68  66  94 SE5       30.16S
LATROBE        MOSUNNY   64  64 100 CALM      30.11S
WASHINGTON CO* MOSUNNY   63  61  93 CALM      30.14R
$$

PAZ004>006-010>012-017>019-024>028-033>037-041-042-045-046-049>053-071300-
CENTRAL PENNSYLVANIA

CITY           SKY/WX    TMP DP  RH WIND       PRES   REMARKS
BRADFORD       CLOUDY    62  54  74 E3        30.18R
ST MARYS       CLOUDY    63  61  94 CALM      30.19
DUBOIS         MOSUNNY   65  60  84 E6        30.14R
CLEARFIELD     CLOUDY    65  63  93 CALM      30.15R
JOHNSTOWN      PTSUNNY   67  63  87 CALM      30.14F FOG
SOMERSET       FAIR      61  61 100 CALM      30.14S
ALTOONA        CLOUDY    70  65  84 CALM      30.13S
STATE COLLEGE  CLOUDY    66  66 100 MISG      30.14R FOG
REEDSVILLE     CLOUDY    70  70 100 CALM      30.11
WELLSBORO      CLOUDY    57  57 100 CALM      30.18R
WILLIAMSPORT   CLOUDY    70  66  87 N3        30.10S
SELINSGROVE    CLOUDY    72  67  84 E5        30.12R
FT INDIANTOWN  CLOUDY    70  69  96 CALM      30.12R
CAPITAL CITY   CLOUDY    74  68  81 E6        30.11R HAZE
HARRISBURG     CLOUDY    73  68  84 E5        30.10R
YORK           CLOUDY    71  68  90 CALM      30.11R FOG
$$

PAZ038>040-043-044-047-048-054-055-060>062-067>071-071300-
EASTERN PENNSYLVANIA

CITY           SKY/WX    TMP DP  RH WIND       PRES   REMARKS
TOWANDA        PTSUNNY   64  64 100 CALM      30.17R
SCRANTON       PTSUNNY   72  64  76 NE6       30.17R
MOUNT POCONO   CLOUDY    64  59  83 VRB6      30.20R
HAZLETON       LGT RAIN  66  63  88 E3        30.20R
LEHIGHTON      CLOUDY    68  68 100 CALM      30.16R
ALLENTOWN      CLOUDY    70  64  81 NE9       30.14R
QN CITY/ALNTWN PTSUNNY   70  64  83 E8        30.16R THUNDER
QUAKERTOWN*    CLOUDY    68  68 100 VRB6      30.14S
PERKASIE*      CLOUDY    66  66 100 NE6       30.15R
DOYLESTOWN     CLOUDY    70  66  87 NE3       30.14R
READING        RAIN      71  70  96 CALM      30.11R FOG
LANCASTER      CLOUDY    72  68  87 NE7       30.12R
COATESVILLE    CLOUDY    70  70 100 E5        30.14R FOG
WEST CHESTER   CLOUDY    72  68  88 CALM      30.13R FOG
POTTSTOWN      RAIN      68  67  96 NE5       30.15R FOG
BLUE BELL      CLOUDY    69  69  98 NE6       30.13R FOG
NORTH PHILA    CLOUDY    70  69  97 NE9       30.14R
PHILADELPHIA   CLOUDY    72  70  93 NE6       30.12R
$$


 

View Past Reports for State College, PA.

Products Courtesy of NOAA-NWS
NWS Information Parsing Script by Ken True at Saratoga Weather - Script by SE Lincoln Weather.